RADFXSAT (FOX-1B)

Last updated on Sun Jun 21 2026 00:03:20 GMT+0000 (Coordinated Universal Time)

1 43017U 17073E 26171.18457471 .00006691 00000+0 29340-3 0 9999 2 43017 97.4696 38.3374 0149318 318.7924 40.2110 15.12753215465843
UTC large
Height (km)
Speed (km/s)
/
Latitude / Longitude
Inclination (degrees)
Orbital Period (minutes)
Azimuth
Elevation
Range (km)
Doppler Factor

Next 0 passes for location: London (51.5072 / 0.1276)

No passes found over London.
RADFXSAT (FOX-1B)